sat.trackr.live / text

‹ back to catalog

STARLINK-6253

NORAD 57083 · 2023-088AM

PAYLOAD ACTIVE UNKNOWN

§ Identity

Operator
Country
US
Launch date
2023-06-22
Launch site
AFWTR
Launch vehicle
Mass (kg)
RCS (m²)

Purposes: comms

External: N2YO · Heavens-Above · Gunter

§ Orbital elements

Epoch: 2026-09-20T04:09:54.582624Z

Period
94.27 min
Inclination
43.0031°
Eccentricity
0.0001437
Mean motion
15.27578911 rev/d
Perigee alt
482.1 km
Apogee alt
484.0 km
Semi-major
6,861.2 km
B*
2.1545e-5
RAAN
77.8163°
Arg perigee
255.9419°
Mean anomaly
104.1273°
Rev number
18,024

§ Raw data

STARLINK-62531 57083U 23088AM  26263.17354841  .00000331  00000+0  21545-4 0  99932 57083  43.0031  77.8163 0001437 255.9419 104.1273 15.27578911180247

JSON: /api/v1/satellites/57083 · /tle

For live sub-satellite position, see the globe view (requires WebGL).

§ Visibility from observer

Set your observer location to see the next 7 days of passes ≥ 10°. The values pass through the URL so the page stays shareable.

No JS? Fill the form by hand. The geolocation button needs JavaScript.